Regional Weather Roundup
Issued by NWS

Home | Current Version | Previous Version | Text Only | Print | Product List | Glossary On
Versions: 1 2 3 4 5 6 7 8 9 10 11 12 13 14 15 16 17 18 19 20 21 22 23 24 25 26 27 28 29 30 31 32 33 34 35 36 37 38 39 40 41 42 43 44 45 46 47 48 49 50
000
ASUS42 KFFC 240610
RWRGA
WEATHER ROUNDUP FOR GEORGIA
NATIONAL WEATHER SERVICE PEACHTREE CITY GA
100 AM EST FRI FEB 24 2017

NOTE: "FAIR" INDICATES FEW OR NO CLOUDS BELOW 12,000 FEET WITH NO
SIGNIFICANT WEATHER AND/OR OBSTRUCTIONS TO VISIBILITY.

* = USE WITH CAUTION. THE STATIONS MARKED WITH AN ASTERISK MAY NOT
REPORT WEATHER SUCH AS PRECIPITATION, FOG, OR THUNDER AND ARE NOT
QUALITY CONTROLLED BY NWS.

THE REMARK "TC" DENOTES TEMPERATURE READING IN DEGREES CELSIUS.

GAZ001>058-240700-
NORTH GEORGIA

CITY           SKY/WX    TMP DP  RH WIND       PRES   REMARKS
ATLANTA        PTCLDY    61  52  72 CALM      29.88S
6HR MIN TEMP:  61; 6HR MAX TEMP:  71;

ATHENS         CLEAR     55  50  83 E5        29.89S
6HR MIN TEMP:  55; 6HR MAX TEMP:  65;

CHAMBLEE       CLEAR     61  49  64 SE3       29.88S
6HR MIN TEMP:  60; 6HR MAX TEMP:  68;

PEACHTREE CITY CLEAR     52  51  97 CALM      29.88S
6HR MIN TEMP:  52; 6HR MAX TEMP:  69;

ROME           NOT AVBL
WEST ATLANTA   CLEAR     54  50  86 CALM      29.88S
6HR MIN TEMP:  54; 6HR MAX TEMP:  72;

GAINESVILLE    CLEAR     60  49  66 E5        29.91F
6HR MIN TEMP:  59; 6HR MAX TEMP:  68;

CARTERSVILLE   CLEAR     52  50  93 SE3       29.87S
6HR MIN TEMP:  52; 6HR MAX TEMP:  63;



CITY           SKY/WX    TMP DP  RH WIND       PRES   REMARKS
DALTON*        CLEAR     59  52  77 CALM      29.86S
MARIETTA       CLEAR     57  51  78 CALM      29.87F
CANTON*        CLEAR     59  45  58 CALM      29.90S
$$

GAZ059>098-102>109-240700-
CENTRAL GEORGIA

CITY           SKY/WX    TMP DP  RH WIND       PRES   REMARKS
AUGUSTA-BUSH   CLEAR     56  53  90 CALM      29.89S
6HR MIN TEMP:  55; 6HR MAX TEMP:  66;

AUGUSTA-DANIEL CLEAR     64  54  69 E5        29.90S
6HR MIN TEMP:  63; 6HR MAX TEMP:  73;

COLUMBUS       CLEAR     61  53  75 E5        29.86S
6HR MIN TEMP:  61; 6HR MAX TEMP:  72;

MACON          NOT AVBL
ROBINS AFB     CLEAR     56  54  90 CALM      29.87S


CITY           SKY/WX    TMP DP  RH WIND       PRES   REMARKS
LAGRANGE*      CLEAR     56  56 100 CALM      29.87S
SYLVANIA*      CLEAR    N/A N/A N/A CALM      29.89S
MILLEDGEVILLE* PTCLDY    54  54 100 CALM      29.89S
$$

GAZ099>101-110>166-240700-
SOUTH GEORGIA

CITY           SKY/WX    TMP DP  RH WIND       PRES   REMARKS
SAVANNAH       CLEAR     60  57  89 N3        29.87R
6HR MIN TEMP:  60; 6HR MAX TEMP:  67;

VALDOSTA       CLEAR     59  58  96 NE3       29.85S
6HR MIN TEMP:  57; 6HR MAX TEMP:  72;

ALMA           PTCLDY    59  58  96 CALM      29.85F
6HR MIN TEMP:  57; 6HR MAX TEMP:  69;

ST SIMONS      PTCLDY    65  61  87 NE10      29.83R
6HR MIN TEMP:  65; 6HR MAX TEMP:  66;

FT STEWART     CLEAR     60  59  94 CALM      29.84S
ALBANY         PTCLDY    58  57  97 CALM      29.88S
HUNTER AFB     CLEAR     62  62 100 N5        29.84R
MOODY AFB      CLEAR     60  58  92 N6        29.84S
BRUNSWICK      CLEAR     64  63  94 N5        29.85S


CITY           SKY/WX    TMP DP  RH WIND       PRES   REMARKS
BAINBRIDGE*    CLEAR     61  57  88 CALM      29.85S
MOULTRIE*      PTCLDY    61  59  94 CALM      29.87S
VIDALIA*       CLEAR     61  61 100 E3        29.87F
WAYCROSS*      PTCLDY    62  62 100 NE3       29.85S
DOUGLAS*       PTCLDY    59  57  94 NE5       29.88S
$$




USA.gov is the U.S. government's official web portal to all federal, state and local government web resources and services.